TimeCST,TemperatureF,Dew PointF,Humidity,Sea Level PressureIn,VisibilityMPH,Wind Direction,Wind SpeedMPH,Gust SpeedMPH,PrecipitationIn,Events,Conditions,WindDirDegrees,DateUTC
12:53 AM,28.9,21.0,72,29.92,10.0,NE,13.8,20.7,N/A,,Overcast,40,2013-02-27 06:53:00
1:53 AM,28.9,21.9,75,29.91,10.0,NNE,10.4,21.9,N/A,,Overcast,30,2013-02-27 07:53:00
2:53 AM,28.9,21.9,75,29.91,10.0,NNE,8.1,16.1,N/A,,Overcast,30,2013-02-27 08:53:00
3:53 AM,30.0,23.0,75,29.90,10.0,NNE,6.9,19.6,N/A,,Overcast,30,2013-02-27 09:53:00
4:51 AM,30.2,23.0,75,29.85,10.0,NNE,9.2,21.9,N/A,,Overcast,30,2013-02-27 10:51:00
4:53 AM,30.0,23.0,75,29.89,10.0,Variable,6.9,21.9,N/A,,Overcast,0,2013-02-27 10:53:00
5:53 AM,30.0,23.0,75,29.90,10.0,NNE,10.4,19.6,N/A,,Overcast,30,2013-02-27 11:53:00
6:00 AM,30.2,23.0,75,29.85,10.0,NE,12.7,23.0,N/A,,Overcast,40,2013-02-27 12:00:00
6:53 AM,30.0,23.0,75,29.90,10.0,NE,9.2,18.4,N/A,,Overcast,40,2013-02-27 12:53:00
7:53 AM,30.0,24.1,79,29.91,10.0,NNE,10.4,18.4,N/A,,Overcast,20,2013-02-27 13:53:00
8:02 AM,30.2,24.8,80,29.85,10.0,Variable,5.8,18.4,N/A,,Overcast,0,2013-02-27 14:02:00
8:53 AM,30.0,24.1,79,29.91,10.0,North,10.4,23.0,N/A,,Overcast,10,2013-02-27 14:53:00
9:53 AM,30.0,24.1,79,29.91,10.0,NNE,10.4,21.9,N/A,,Overcast,30,2013-02-27 15:53:00
10:53 AM,30.0,24.1,79,29.91,10.0,NNE,15.0,25.3,N/A,,Overcast,20,2013-02-27 16:53:00
12:53 PM,30.9,25.0,79,29.92,10.0,NNE,8.1,-,0.00,,Overcast,20,2013-02-27 18:53:00
1:53 PM,30.0,25.0,82,29.92,10.0,NNE,9.2,18.4,N/A,,Overcast,30,2013-02-27 19:53:00
2:53 PM,30.0,24.1,79,29.93,10.0,NNE,9.2,18.4,N/A,,Overcast,20,2013-02-27 20:53:00
3:53 PM,28.9,24.1,82,29.94,10.0,Variable,6.9,-,N/A,,Overcast,0,2013-02-27 21:53:00
4:53 PM,30.0,23.0,75,29.96,10.0,Variable,6.9,-,N/A,,Overcast,0,2013-02-27 22:53:00
5:34 PM,30.2,23.0,75,29.92,10.0,North,9.2,17.3,N/A,,Overcast,10,2013-02-27 23:34:00
5:53 PM,30.9,23.0,72,29.97,10.0,NNE,9.2,26.5,N/A,,Overcast,30,2013-02-27 23:53:00
6:53 PM,30.9,23.0,72,29.99,10.0,NNE,9.2,21.9,N/A,,Overcast,30,2013-02-28 00:53:00
7:53 PM,30.9,21.9,69,30.00,10.0,Variable,5.8,-,N/A,,Overcast,0,2013-02-28 01:53:00
8:53 PM,30.0,21.0,69,30.02,10.0,Variable,5.8,-,N/A,,Overcast,0,2013-02-28 02:53:00
9:26 PM,30.2,19.4,64,29.97,10.0,Variable,4.6,-,N/A,,Overcast,0,2013-02-28 03:26:00
9:53 PM,30.0,21.0,69,30.02,10.0,NNE,8.1,-,N/A,,Overcast,20,2013-02-28 03:53:00
10:53 PM,30.0,21.9,72,30.02,10.0,NNE,11.5,19.6,N/A,,Overcast,30,2013-02-28 04:53:00